Temp
-10 -10 -10 -9 -10 -10 -9 -9 -9 -9 -9 -9 -8 -8 -8 -8 -8 -8 -8 -8 -8 -8 -8 -9 -9 -9 -9 -9 -9 -9 -9 -9 -9 -9 -9 -9 -9 -8 -8 -9 -9 -9 -8 -8 -8 -8 -8 -8 -8
-10 -10 -10 -10 -10 -10 -10 -10 -9 -9 -9 -9 -8 -8 -9 -9 -9 -9 -9 -8 -8 -8 -8 -9 -9 -9 -9 -9 -9 -9 -9 -9 -9 -9 -9 -9 -9 -8 -9 -9 -9 -9 -9 -8 -8 -8 -8 -8 -8
-10 -10 -10 -10 -10 -10 -10 -10 -9 -9 -9 -9 -9 -8 -8 -9 -9 -9 -9 -9 -8 -8 -8 -8 -8 -8 -8 -8 -9 -9 -9 -9 -9 -9 -9 -9 -9 -9 -9 -9 -9 -9 -9 -8 -8 -8 -8 -8 -8
-10 -9 -9 -9 -10 -10 -9 -9 -9 -9 -9 -9 -9 -9 -9 -9 -9 -9 -9 -10 -9 -9 -8 -8 -8 -8 -8 -8 -9 -9 -9 -9 -9 -9 -9 -9 -9 -9 -9 -9 -9 -9 -9 -8 -8 -8 -8 -8 -8
-10 -9 -9 -9 -9 -9 -9 -9 -9 -9 -9 -9 -9 -9 -9 -9 -9 -9 -9 -9 -9 -9 -9 -9 -9 -8 -8 -8 -8 -9 -9 -9 -9 -9 -9 -9 -9 -9 -9 -9 -9 -9 -9 -9 -9 -8 -8 -8 -8
-10 -9 -9 -9 -9 -9 -9 -9 -9 -9 -9 -9 -9 -9 -9 -9 -9 -9 -9 -9 -9 -9 -9 -9 -9 -9 -8 -8 -8 -8 -8 -9 -9 -9 -9 -9 -9 -9 -9 -9 -9 -9 -9 -9 -9 -9 -8 -8 -8
-10 -10 -9 -9 -9 -9 -9 -9 -9 -9 -9 -9 -9 -9 -9 -9 -9 -9 -9 -9 -8 -8 -8 -9 -9 -9 -9 -9 -8 -8 -8 -8 -8 -8 -9 -9 -9 -9 -9 -9 -9 -9 -9 -9 -9 -9 -9 -9 -9
-10 -9 -9 -9 -9 -9 -9 -9 -9 -9 -9 -9 -9 -9 -9 -9 -9 -9 -9 -9 -9 -9 -9 -8 -8 -9 -9 -9 -9 -8 -8 -8 -8 -8 -8 -8 -8 -9 -8 -9 -9 -9 -9 -9 -9 -9 -9 -9 -9
-10 -9 -9 -9 -9 -9 -9 -9 -9 -9 -9 -9 -9 -9 -9 -9 -9 -9 -8 -9 -9 -9 -9 -9 -9 -8 -8 -9 -9 -9 -8 -8 -8 -8 -8 -8 -8 -8 -8 -8 -8 -9 -9 -9 -9 -9 -9 -9 -9
-9 -10 -10 -9 -9 -9 -9 -9 -9 -9 -9 -9 -9 -9 -9 -9 -9 -9 -9 -8 -8 -8 -8 -9 -9 -9 -9 -9 -9 -8 -8 -8 -8 -8 -8 -8 -8 -8 -8 -9 -8 -9 -9 -9 -10 -9 -9 -9 -9
-10 -10 -10 -9 -9 -9 -9 -9 -10 -10 -9 -9 -9 -9 -9 -9 -9 -9 -9 -9 -8 -8 -8 -8 -8 -8 -8 -8 -9 -9 -9 -9 -9 -8 -8 -8 -8 -9 -9 -8 -9 -9 -9 -9 -9 -9 -9 -9 -9
-10 -10 -10 -10 -9 -9 -9 -9 -9 -10 -9 -9 -9 -9 -9 -9 -9 -9 -9 -9 -9 -9 -9 -8 -8 -8 -8 -8 -8 -8 -9 -9 -9 -9 -9 -9 -8 -8 -9 -9 -9 -9 -9 -9 -9 -9 -9 -10 -9
-10 -10 -10 -10 -10 -10 -10 -10 -10 -10 -10 -9 -9 -9 -9 -9 -9 -9 -9 -9 -9 -9 -9 -9 -9 -9 -9 -8 -8 -9 -8 -8 -9 -9 -9 -9 -9 -8 -8 -9 -9 -9 -9 -9 -9 -9 -9 -9 -9
-10 -10 -10 -10 -10 -10 -10 -10 -10 -10 -10 -9 -10 -10 -10 -9 -9 -9 -9 -10 -9 -9 -9 -9 -9 -9 -9 -8 -8 -8 -8 -8 -8 -8 -9 -9 -9 -9 -9 -8 -8 -9 -9 -9 -9 -9 -9 -9 -9
-11 -10 -10 -10 -10 -10 -10 -10 -10 -10 -10 -10 -10 -10 -10 -9 -9 -10 -10 -10 -9 -9 -9 -9 -9 -9 -9 -9 -8 -8 -8 -8 -8 -8 -8 -8 -8 -8 -9 -10 -9 -8 -9 -9 -9 -9 -9 -9 -9
-11 -11 -10 -11 -11 -11 -10 -10 -11 -10 -10 -10 -10 -10 -10 -10 -10 -10 -10 -10 -9 -9 -9 -9 -8 -9 -9 -8 -8 -9 -8 -8 -8 -8 -8 -8 -8 -8 -8 -9 -10 -10 -9 -9 -9 -9 -9 -9 -9
-11 -11 -11 -11 -11 -11 -11 -10 -11 -11 -10 -10 -10 -10 -10 -10 -11 -10 -9 -9 -9 -9 -9 -9 -9 -9 -9 -9 -8 -9 -9 -9 -9 -9 -8 -8 -8 -9 -9 -9 -9 -9 -10 -10 -9 -9 -9 -9 -9
-11 -12 -12 -11 -12 -11 -10 -10 -11 -11 -10 -11 -11 -10 -10 -10 -11 -10 -10 -9 -9 -9 -9 -9 -9 -10 -10 -10 -9 -9 -9 -9 -9 -9 -9 -9 -9 -9 -9 -9 -9 -9 -9 -9 -10 -10 -9 -9 -9
-12 -12 -11 -11 -12 -11 -11 -10 -11 -11 -11 -11 -11 -11 -11 -11 -10 -10 -10 -10 -9 -9 -9 -9 -10 -10 -10 -9 -9 -9 -9 -9 -9 -9 -9 -10 -10 -10 -9 -9 -9 -9 -9 -10 -10 -10 -10 -10 -11
-12 -12 -11 -12 -12 -12 -11 -11 -11 -11 -11 -11 -11 -12 -11 -11 -11 -11 -10 -10 -10 -10 -10 -10 -10 -10 -10 -10 -10 -9 -9 -10 -10 -10 -10 -10 -10 -10 -10 -9 -9 -10 -10 -10 -10 -10 -11 -11 -11
-13 -13 -13 -12 -12 -12 -11 -10 -11 -11 -11 -12 -12 -12 -12 -11 -11 -11 -10 -10 -10 -10 -10 -10 -10 -10 -10 -9 -9 -10 -10 -10 -11 -11 -11 -11 -10 -10 -10 -10 -10 -10 -10 -11 -11 -11 -11 -11 -11
-13 -14 -14 -13 -13 -12 -12 -11 -10 -11 -11 -12 -13 -12 -12 -11 -11 -11 -11 -11 -11 -10 -10 -10 -10 -10 -9 -9 -9 -10 -10 -10 -11 -11 -12 -12 -12 -11 -11 -11 -11 -11 -11 -11 -12 -12 -12 -12 -11
-14 -14 -15 -14 -14 -13 -12 -12 -10 -11 -12 -12 -12 -12 -12 -12 -11 -11 -11 -11 -10 -10 -10 -10 -10 -10 -10 -10 -10 -9 -10 -11 -11 -12 -12 -13 -13 -13 -12 -12 -12 -12 -12 -12 -12 -13 -13 -12 -12
-15 -15 -15 -14 -14 -13 -13 -13 -11 -12 -12 -12 -13 -13 -12 -12 -12 -11 -11 -11 -10 -10 -10 -10 -10 -10 -10 -11 -11 -10 -11 -11 -12 -13 -13 -14 -14 -14 -14 -14 -14 -13 -13 -14 -13 -13 -13 -13 -13
-16 -15 -15 -15 -15 -14 -14 -14 -12 -12 -13 -13 -13 -13 -13 -12 -12 -11 -11 -11 -11 -11 -10 -10 -10 -11 -11 -12 -12 -12 -13 -13 -13 -14 -14 -14 -15 -14 -15 -15 -15 -15 -15 -15 -15 -14 -14 -13 -13
-17 -17 -17 -17 -16 -16 -16 -13 -12 -13 -14 -14 -14 -13 -13 -12 -12 -12 -12 -12 -12 -12 -11 -11 -11 -12 -12 -13 -15 -15 -15 -15 -15 -15 -16 -15 -15 -15 -15 -15 -15 -15 -15 -15 -15 -15 -15 -15 -14
-18 -18 -18 -18 -18 -17 -16 -14 -14 -14 -14 -15 -14 -13 -13 -13 -13 -13 -13 -13 -13 -13 -13 -13 -13 -14 -15 -15 -16 -17 -17 -17 -17 -17 -17 -16 -16 -16 -16 -16 -15 -15 -15 -15 -15 -15 -15 -15 -15
-18 -18 -19 -19 -18 -18 -16 -16 -14 -14 -16 -15 -15 -14 -14 -14 -14 -15 -16 -15 -15 -15 -15 -16 -16 -16 -17 -17 -18 -18 -18 -18 -18 -18 -17 -17 -17 -17 -16 -16 -16 -16 -15 -15 -16 -16 -15 -15 -15
-19 -19 -19 -20 -20 -19 -19 -16 -15 -15 -16 -16 -16 -16 -16 -16 -16 -16 -17 -17 -17 -17 -17 -17 -18 -18 -18 -18 -19 -19 -19 -19 -19 -19 -19 -18 -17 -17 -18 -17 -17 -16 -16 -16 -17 -16 -16 -16 -16
-20 -20 -21 -20 -19 -20 -19 -16 -15 -16 -17 -17 -17 -18 -18 -18 -18 -18 -18 -18 -18 -19 -19 -19 -19 -19 -19 -19 -19 -19 -19 -19 -19 -19 -19 -19 -18 -18 -18 -18 -18 -18 -17 -17 -17 -16 -16 -17 -16
Height
5879 5882 5883 5886 5889 5889 5890 5892 5893 5894 5894 5894 5892 5892 5893 5890 5890 5891 5890 5889 5888 5887 5886 5887 5888 5889 5890 5890 5891 5892 5892 5893 5893 5893 5893 5894 5893 5893 5893 5893 5894 5895 5894 5895 5896 5897 5897 5898 5897
5878 5880 5882 5883 5886 5887 5889 5890 5892 5893 5893 5893 5892 5892 5892 5891 5890 5889 5890 5890 5890 5889 5888 5887 5889 5889 5890 5891 5891 5891 5892 5892 5892 5892 5892 5894 5893 5894 5893 5893 5894 5894 5895 5895 5896 5896 5897 5897 5897
5876 5878 5880 5881 5882 5885 5887 5889 5890 5891 5891 5891 5892 5892 5891 5891 5890 5889 5889 5890 5891 5890 5890 5889 5889 5889 5890 5890 5891 5891 5891 5891 5891 5892 5892 5892 5893 5893 5893 5892 5893 5894 5894 5895 5895 5896 5896 5896 5896
5874 5877 5879 5879 5880 5883 5885 5887 5888 5889 5889 5890 5890 5892 5892 5891 5891 5891 5890 5889 5890 5890 5889 5891 5890 5889 5890 5891 5891 5891 5891 5890 5890 5890 5891 5891 5891 5892 5892 5892 5892 5893 5893 5894 5895 5895 5895 5894 5894
5871 5873 5875 5877 5879 5881 5883 5885 5887 5887 5888 5889 5889 5890 5891 5890 5890 5890 5890 5890 5890 5889 5889 5889 5890 5889 5890 5890 5890 5891 5891 5890 5890 5889 5889 5890 5890 5890 5891 5892 5892 5892 5892 5893 5893 5893 5893 5893 5893
5868 5871 5873 5875 5877 5879 5881 5883 5884 5885 5886 5887 5888 5888 5889 5889 5889 5889 5889 5888 5888 5888 5889 5888 5888 5888 5888 5888 5889 5889 5890 5890 5890 5889 5888 5889 5889 5888 5888 5889 5890 5891 5891 5891 5892 5892 5892 5892 5891
5865 5867 5870 5872 5874 5876 5878 5880 5882 5882 5883 5884 5886 5885 5887 5887 5888 5888 5888 5888 5887 5886 5887 5887 5887 5886 5886 5886 5885 5886 5887 5888 5888 5888 5888 5888 5888 5888 5888 5888 5888 5889 5889 5889 5889 5890 5890 5890 5889
5862 5864 5866 5869 5871 5874 5875 5877 5879 5880 5881 5882 5883 5883 5883 5884 5885 5886 5887 5887 5887 5887 5886 5886 5885 5884 5885 5885 5884 5883 5884 5885 5886 5886 5886 5886 5887 5887 5886 5887 5887 5887 5887 5887 5886 5887 5887 5887 5886
5858 5862 5864 5866 5868 5871 5874 5876 5877 5878 5878 5879 5880 5881 5881 5882 5883 5883 5884 5885 5884 5884 5884 5885 5884 5884 5884 5884 5883 5882 5881 5881 5882 5884 5885 5885 5885 5885 5884 5884 5884 5885 5885 5884 5884 5884 5884 5884 5883
5853 5857 5859 5862 5865 5867 5870 5872 5873 5875 5875 5877 5878 5879 5880 5880 5881 5881 5882 5882 5882 5883 5883 5883 5884 5883 5882 5882 5881 5881 5880 5879 5879 5878 5880 5882 5882 5883 5882 5882 5881 5882 5881 5881 5880 5880 5880 5880 5879
5849 5851 5853 5857 5860 5863 5866 5869 5870 5871 5872 5873 5875 5877 5878 5878 5878 5879 5879 5879 5879 5881 5881 5881 5881 5881 5881 5880 5880 5879 5878 5877 5877 5877 5876 5876 5878 5878 5879 5879 5878 5878 5878 5877 5877 5876 5876 5875 5874
5843 5846 5848 5853 5856 5858 5861 5864 5867 5867 5868 5869 5871 5873 5874 5875 5875 5876 5877 5877 5877 5877 5878 5879 5878 5878 5877 5877 5877 5877 5876 5875 5875 5874 5874 5873 5873 5873 5873 5874 5874 5874 5873 5873 5872 5872 5871 5871 5870
5837 5841 5843 5846 5849 5853 5857 5860 5862 5864 5863 5865 5867 5868 5870 5870 5871 5872 5873 5874 5875 5874 5874 5874 5874 5874 5874 5874 5873 5873 5873 5873 5872 5871 5871 5870 5870 5869 5868 5867 5868 5868 5868 5868 5868 5868 5867 5866 5865
5832 5834 5836 5839 5842 5847 5852 5855 5858 5859 5856 5860 5862 5863 5864 5866 5867 5867 5868 5869 5870 5870 5870 5869 5869 5870 5870 5869 5869 5869 5869 5869 5868 5867 5867 5866 5865 5865 5864 5862 5862 5861 5861 5860 5861 5861 5861 5861 5860
5824 5827 5829 5833 5837 5841 5845 5850 5854 5850 5853 5853 5855 5857 5859 5860 5861 5863 5863 5864 5864 5864 5863 5863 5864 5865 5864 5864 5864 5864 5864 5864 5863 5862 5861 5861 5860 5860 5859 5859 5858 5855 5853 5853 5853 5853 5853 5853 5852
5815 5819 5822 5828 5832 5835 5837 5845 5846 5844 5845 5847 5848 5850 5852 5852 5855 5855 5855 5856 5856 5857 5858 5858 5858 5858 5858 5858 5857 5857 5857 5857 5856 5856 5855 5854 5853 5852 5852 5852 5851 5849 5848 5846 5845 5844 5845 5844 5843
5806 5811 5817 5821 5824 5826 5827 5831 5838 5836 5837 5838 5840 5842 5842 5844 5846 5846 5847 5848 5850 5852 5852 5852 5851 5852 5852 5851 5850 5850 5850 5849 5848 5849 5848 5847 5846 5845 5844 5843 5842 5840 5839 5839 5837 5835 5834 5833 5833
5800 5805 5809 5812 5813 5814 5817 5820 5830 5828 5827 5829 5831 5832 5834 5837 5838 5837 5838 5841 5843 5844 5844 5844 5843 5843 5842 5842 5842 5843 5843 5841 5839 5839 5840 5839 5838 5836 5835 5834 5832 5831 5829 5828 5827 5826 5824 5824 5823
5786 5790 5795 5800 5803 5805 5808 5810 5812 5818 5818 5820 5821 5823 5824 5825 5826 5830 5831 5832 5833 5832 5831 5832 5834 5835 5834 5834 5833 5833 5833 5830 5829 5827 5826 5827 5826 5823 5822 5822 5821 5820 5819 5818 5817 5816 5816 5813 5811
5774 5778 5783 5788 5793 5793 5797 5799 5800 5804 5809 5809 5813 5814 5815 5817 5819 5820 5820 5820 5820 5820 5821 5821 5821 5822 5822 5822 5822 5820 5820 5820 5819 5818 5817 5815 5814 5810 5809 5808 5808 5809 5807 5806 5807 5806 5805 5804 5801
5763 5767 5771 5774 5776 5780 5784 5789 5791 5792 5797 5801 5800 5801 5803 5806 5808 5809 5809 5809 5809 5810 5810 5810 5810 5809 5808 5808 5808 5808 5807 5808 5807 5806 5804 5801 5799 5798 5796 5794 5794 5795 5794 5794 5792 5792 5790 5792 5792
5750 5756 5759 5761 5762 5765 5770 5771 5781 5786 5787 5791 5789 5789 5791 5791 5792 5794 5796 5798 5799 5798 5798 5798 5797 5796 5795 5793 5794 5794 5793 5793 5791 5791 5791 5789 5787 5786 5784 5781 5780 5781 5782 5781 5781 5778 5779 5777 5778
5740 5742 5744 5746 5748 5750 5757 5760 5764 5775 5777 5779 5777 5778 5778 5779 5780 5779 5781 5782 5783 5784 5784 5783 5783 5782 5780 5779 5778 5778 5778 5776 5775 5775 5775 5775 5775 5773 5772 5769 5767 5767 5768 5768 5767 5767 5766 5765 5764
5727 5730 5733 5733 5732 5735 5746 5750 5756 5755 5758 5762 5764 5765 5769 5768 5767 5766 5764 5763 5764 5764 5765 5764 5764 5763 5762 5760 5760 5760 5759 5759 5760 5759 5758 5759 5760 5761 5759 5756 5754 5753 5753 5753 5753 5753 5754 5753 5751
5716 5719 5720 5717 5720 5726 5732 5734 5747 5738 5741 5743 5747 5751 5751 5752 5752 5751 5749 5748 5748 5747 5747 5747 5747 5746 5745 5743 5742 5742 5741 5741 5741 5741 5742 5742 5743 5743 5743 5741 5740 5739 5738 5738 5737 5737 5740 5740 5738
5708 5707 5705 5705 5707 5712 5716 5720 5729 5733 5730 5730 5731 5733 5733 5734 5731 5731 5731 5730 5729 5729 5729 5729 5729 5728 5726 5725 5724 5724 5725 5725 5725 5725 5726 5727 5727 5728 5728 5728 5727 5725 5723 5723 5721 5721 5722 5722 5723
5692 5689 5697 5694 5694 5693 5698 5713 5717 5722 5721 5719 5718 5719 5719 5717 5712 5712 5712 5712 5712 5713 5714 5713 5711 5710 5710 5709 5709 5709 5710 5710 5711 5711 5711 5711 5712 5712 5712 5711 5711 5711 5709 5708 5705 5705 5705 5706 5707
5676 5684 5680 5678 5679 5681 5689 5699 5709 5711 5710 5705 5706 5705 5704 5703 5698 5694 5695 5698 5699 5698 5697 5696 5695 5695 5694 5694 5694 5695 5695 5696 5696 5696 5696 5695 5695 5695 5695 5694 5694 5694 5693 5692 5689 5689 5689 5688 5689
5669 5667 5668 5669 5670 5671 5676 5681 5698 5700 5695 5694 5693 5691 5690 5688 5687 5683 5681 5681 5681 5682 5682 5682 5682 5682 5681 5682 5681 5680 5680 5680 5680 5680 5680 5680 5679 5679 5677 5677 5677 5676 5676 5675 5673 5673 5672 5670 5671
5651 5654 5653 5652 5656 5658 5660 5668 5684 5686 5681 5678 5678 5677 5675 5674 5673 5673 5671 5668 5668 5669 5670 5670 5670 5668 5667 5668 5667 5667 5666 5665 5665 5664 5663 5663 5664 5662 5661 5660 5660 5659 5658 5657 5655 5655 5654 5653 5653
Wind_Speed
9 9 8 5 4 2 5 6 7 10 11 12 14 12 13 16 18 21 21 19 14 14 14 13 11 10 8 7 7 6 5 5 4 4 5 4 5 4 3 2 4 6 7 6 4 4 3 2 2
13 11 9 7 5 3 4 4 5 6 7 9 12 14 12 12 15 18 18 19 18 13 14 12 10 9 8 8 7 6 4 4 3 4 3 4 4 4 2 1 3 5 6 6 5 4 3 2 3
14 13 11 10 8 5 4 2 3 6 7 8 8 9 13 15 15 16 16 16 18 17 12 11 10 10 9 7 7 6 5 3 4 3 2 3 5 4 3 0 3 5 5 5 5 4 4 4 4
14 12 10 10 8 6 4 1 2 2 4 7 8 9 8 11 13 13 11 14 15 16 17 11 7 5 5 5 5 5 6 5 3 2 3 2 4 6 4 2 4 6 7 8 7 6 6 7 6
16 15 13 11 9 7 6 5 4 2 2 3 4 6 8 8 9 11 11 9 7 8 10 11 11 9 5 4 4 6 6 7 6 4 3 3 4 4 5 4 6 8 10 11 10 10 10 10 8
20 19 16 14 11 9 8 7 5 4 4 3 1 2 2 3 4 6 7 8 7 6 6 5 2 6 7 6 6 6 9 9 10 8 6 5 5 4 4 4 6 10 11 13 13 13 12 12 11
23 22 20 17 15 12 10 8 7 5 5 5 4 4 3 2 0 3 3 4 4 5 6 5 6 6 1 4 5 5 7 10 13 12 11 9 8 8 9 8 8 9 12 14 15 16 15 15 14
25 22 19 16 15 12 11 9 8 6 4 3 2 3 4 3 4 4 3 2 2 3 4 5 6 4 5 1 2 4 4 7 10 13 14 13 12 12 13 12 12 11 14 16 18 18 18 18 16
21 20 19 16 15 13 12 11 9 9 8 7 6 4 4 4 5 5 5 4 4 5 4 5 5 6 6 5 3 4 3 4 6 10 13 16 16 16 16 16 15 14 14 18 21 21 22 21 19
23 21 22 20 17 16 14 12 11 10 10 8 6 6 6 6 6 7 8 7 8 8 9 9 9 8 8 9 9 9 7 6 6 6 10 14 16 19 21 21 21 19 18 18 20 23 23 24 22
26 26 26 23 21 18 16 14 13 12 12 10 9 7 7 8 8 7 8 8 9 8 9 10 10 11 11 12 12 11 12 10 10 10 9 12 16 18 22 22 24 25 23 22 20 22 25 26 26
30 27 28 25 23 22 19 16 15 14 16 15 12 11 10 10 9 8 10 12 11 11 9 10 10 11 12 13 13 14 15 13 13 13 14 14 15 18 21 23 26 27 27 27 26 23 23 25 27
33 31 30 29 27 25 22 19 17 16 20 19 17 16 15 13 13 12 13 14 12 12 12 10 11 11 12 13 15 15 16 18 18 19 19 20 20 21 21 24 26 28 29 28 28 28 27 26 25
36 35 34 33 32 29 25 24 19 19 26 24 21 20 20 20 18 18 18 18 18 17 18 15 15 14 16 16 16 17 19 19 20 22 24 23 25 27 27 26 26 30 32 33 31 31 31 31 31
41 39 38 37 34 31 29 28 22 30 27 29 28 26 24 25 23 22 23 23 25 25 24 24 22 20 20 21 22 22 23 23 24 24 26 28 30 31 30 31 33 30 32 35 37 36 35 35 35
44 42 41 38 36 35 36 29 29 32 32 32 32 30 29 28 27 27 28 27 30 30 30 29 29 28 27 27 27 28 28 27 27 29 29 31 32 32 33 32 32 37 38 35 36 39 41 41 40
46 45 41 39 40 39 41 39 33 36 37 37 36 34 35 32 31 32 33 33 32 32 33 34 34 33 33 33 33 33 34 34 35 34 34 35 36 36 35 35 36 37 38 42 41 39 41 43 45
45 43 43 43 43 45 45 45 38 40 42 41 40 40 40 38 36 38 38 37 36 37 37 37 38 38 38 36 37 37 37 38 40 40 38 38 38 40 40 40 41 42 42 41 43 46 44 45 46
49 49 48 47 47 47 47 48 47 44 46 44 43 43 43 44 43 41 41 40 40 42 42 42 40 40 41 41 42 42 41 43 43 44 44 41 41 43 44 44 47 46 47 47 45 43 49 49 47
51 51 50 48 46 49 49 51 51 49 48 49 47 47 46 46 45 44 45 44 45 45 46 46 46 45 45 46 46 47 47 47 47 47 47 47 47 50 51 51 50 47 51 51 48 47 46 49 52
51 50 49 50 51 53 55 55 54 55 50 48 50 49 50 49 48 48 48 49 49 48 49 50 51 51 51 52 53 53 55 54 52 49 50 53 55 55 55 55 56 51 52 53 53 50 52 54 56
54 50 51 53 56 59 61 65 60 55 53 47 47 50 50 53 54 53 52 52 52 53 54 55 56 58 59 60 59 59 59 59 58 57 55 56 58 58 59 60 60 57 55 55 53 54 54 55 57
52 50 51 59 62 63 64 67 71 62 54 52 52 52 54 54 56 57 58 58 59 58 58 59 61 63 64 65 65 64 63 62 63 61 58 57 58 60 60 61 63 63 61 58 54 53 55 56 59
58 59 57 61 64 69 66 62 69 65 60 58 55 53 53 56 58 60 63 65 65 65 66 67 67 67 67 68 68 68 68 67 63 62 61 57 57 58 56 57 59 61 60 56 54 52 54 57 57
62 61 63 65 64 67 63 62 64 68 63 60 57 56 59 60 62 64 66 68 69 70 70 70 70 70 69 67 66 65 64 63 63 61 61 61 60 59 53 54 56 56 55 53 54 55 52 53 56
54 55 58 58 60 60 60 68 67 64 64 61 59 61 63 65 68 69 69 70 71 71 71 71 70 69 67 64 60 57 57 58 60 63 63 64 63 63 63 62 61 60 60 60 60 59 59 59 56
53 58 54 56 59 63 66 66 62 57 57 55 61 64 64 67 70 70 70 70 69 67 66 66 66 64 59 57 56 54 55 57 61 63 64 65 67 67 62 63 63 64 64 66 65 64 62 62 62
53 49 51 54 57 59 62 59 56 56 53 60 63 66 67 69 71 69 66 65 64 62 59 56 54 54 53 52 51 53 57 58 62 66 67 68 69 72 62 60 61 61 61 60 64 65 65 65 63
53 54 53 52 53 56 61 66 59 60 62 62 63 65 65 65 65 64 61 58 57 56 54 53 51 50 50 49 50 53 55 58 62 63 61 62 66 64 65 57 58 61 60 61 61 62 65 67 67
57 58 57 61 63 61 61 68 61 59 59 60 59 56 54 53 54 54 55 55 53 51 51 51 51 52 54 54 52 53 54 53 54 56 60 58 63 59 57 54 57 62 61 63 63 66 66 63 66
Wind_Direction
201 192 187 186 179 122 66 46 42 48 47 59 60 57 53 60 63 59 54 50 59 64 70 79 81 53 38 74 81 81 51 76 78 52 59 41 41 22 25 64 161 174 169 166 174 182 183 188 204
204 197 194 187 186 150 88 55 46 43 34 41 55 56 55 57 58 63 60 54 49 61 65 81 76 65 54 47 56 66 76 358 34 54 15 16 24 21 16 130 169 182 187 179 190 197 208 222 238
209 206 200 195 193 174 156 121 34 29 29 40 45 54 61 64 69 67 68 66 58 54 49 70 75 59 47 55 42 31 50 21 351 340 24 11 351 352 358 40 191 210 216 205 211 215 225 233 243
209 206 206 204 202 201 199 177 53 11 24 31 43 64 62 74 60 54 65 80 73 63 61 43 40 45 29 17 19 14 7 5 350 321 345 352 4 348 330 268 218 221 231 231 229 232 239 244 249
219 219 216 221 214 209 200 191 186 240 328 30 34 74 92 78 75 76 66 71 86 77 69 66 55 33 354 345 350 345 347 342 347 323 312 317 351 6 335 294 243 232 233 236 238 239 244 250 254
227 228 224 225 223 224 224 219 218 234 261 252 218 301 75 98 105 102 98 89 73 59 52 56 64 56 38 13 313 312 323 331 323 315 301 290 302 318 321 300 257 241 238 243 247 252 255 257 257
228 230 230 227 228 227 232 229 230 233 238 258 253 241 259 273 313 100 91 82 73 80 78 69 64 59 23 44 32 325 307 309 320 308 301 290 286 292 291 287 280 260 254 256 255 257 261 264 262
225 226 224 220 221 221 216 207 198 200 205 196 221 237 272 286 303 315 322 339 2 13 20 43 46 48 23 327 59 38 353 315 302 304 296 293 286 282 285 288 289 288 276 265 262 263 263 267 268
215 223 225 214 213 222 225 219 212 201 207 217 225 242 269 301 317 323 329 329 313 313 322 338 3 10 5 346 315 331 341 321 311 304 292 297 295 281 279 284 288 289 287 281 276 272 269 270 268
218 220 226 232 229 227 226 222 221 217 212 215 218 229 249 265 286 298 309 320 319 338 340 334 334 338 345 347 333 328 324 307 299 286 284 286 291 299 293 285 285 287 287 289 280 274 273 273 268
222 222 229 234 236 235 232 228 227 234 240 239 237 243 256 263 271 280 291 297 305 327 339 339 339 337 332 330 332 333 322 317 299 295 279 272 279 284 290 293 293 291 286 286 286 280 273 268 267
222 225 229 231 236 239 237 237 241 246 257 259 262 264 258 257 263 279 285 289 305 313 327 330 331 338 335 329 325 322 322 317 309 298 292 283 276 276 279 285 290 290 288 286 284 280 279 276 273
224 228 231 237 237 240 240 240 240 249 259 260 264 268 269 267 269 269 270 278 287 295 298 301 302 313 317 319 322 320 320 315 313 308 301 294 288 283 277 276 279 284 288 288 286 284 281 278 277
225 230 235 239 242 243 244 246 245 253 255 262 263 262 265 268 270 273 274 278 280 284 282 281 285 293 299 303 305 311 314 314 310 303 300 300 294 289 284 281 276 276 278 281 283 283 281 279 276
228 232 237 241 244 248 253 250 251 249 255 260 261 263 267 269 270 272 275 277 277 278 280 282 288 288 291 293 297 304 305 306 303 301 298 297 296 296 291 289 288 279 276 277 276 276 278 278 276
231 234 239 242 247 251 255 250 250 254 255 258 263 267 268 269 269 268 267 268 273 275 276 281 285 288 290 291 295 295 297 299 295 296 295 293 292 292 291 290 287 287 284 277 276 275 274 274 274
235 239 243 248 253 256 257 255 252 257 258 259 262 263 266 267 271 268 268 267 269 274 280 283 284 285 287 287 290 293 296 296 295 294 293 295 296 292 287 285 283 284 283 283 279 276 272 269 270
248 249 248 249 251 252 257 262 259 258 259 262 264 265 266 268 268 269 273 279 281 280 278 278 278 281 282 284 288 291 292 293 293 295 293 292 293 290 285 282 280 278 279 278 278 277 274 273 269
249 249 249 250 252 256 260 262 264 261 264 267 266 267 270 272 273 277 279 279 280 280 279 277 277 278 282 284 286 289 289 290 291 289 289 288 285 280 279 280 280 279 277 276 275 277 279 271 268
250 253 255 256 258 259 259 262 265 266 264 265 268 268 269 271 275 276 278 278 279 277 278 281 283 282 281 283 282 283 284 284 284 284 284 282 279 279 282 282 279 278 276 276 275 276 279 282 275
248 253 256 258 260 261 262 262 262 264 266 268 270 273 275 276 276 276 275 276 276 279 281 282 281 282 282 282 283 283 283 283 278 275 273 274 276 276 276 277 279 275 273 271 271 270 272 278 280
248 253 258 261 262 263 265 266 263 263 265 269 273 276 278 279 279 277 276 276 277 278 279 279 280 282 282 282 282 281 281 281 280 277 273 272 272 271 272 275 277 274 273 273 271 271 271 276 278
256 258 260 261 264 264 264 267 271 265 265 269 272 272 273 276 278 279 280 280 280 279 279 280 281 281 281 280 280 280 279 278 278 275 273 271 271 272 273 274 276 277 274 272 273 272 273 274 278
255 257 260 262 261 263 266 267 268 270 271 269 271 275 277 277 279 280 281 282 282 281 283 284 284 284 282 282 280 279 279 277 274 272 269 265 268 270 271 272 272 274 276 275 276 275 272 272 275
253 256 261 261 262 268 269 267 267 269 274 278 281 283 281 280 279 279 279 280 282 283 284 285 285 283 282 280 278 278 275 273 272 268 263 263 263 261 258 260 263 266 269 271 273 274 276 275 272
256 257 259 263 263 265 264 265 268 269 273 281 283 281 281 282 282 283 284 285 285 285 285 284 284 284 283 282 279 274 271 269 266 265 266 265 265 264 263 263 260 260 265 270 269 269 271 269 273
251 253 259 261 261 262 261 262 268 275 278 279 278 279 281 283 284 284 283 283 283 283 283 282 281 280 278 277 275 272 268 265 266 266 267 268 268 266 267 268 268 266 267 267 267 268 268 269 269
253 253 251 253 257 260 268 268 269 270 274 276 280 281 281 280 281 283 283 282 282 281 280 280 279 279 280 278 276 274 269 270 268 268 269 271 271 270 265 266 269 269 270 273 269 267 267 266 267
253 256 257 259 261 266 268 266 268 272 274 275 276 276 276 276 279 280 280 280 281 280 279 281 281 281 280 278 278 278 276 273 273 274 274 274 274 275 263 266 267 269 269 271 270 268 267 268 268
252 253 254 257 259 260 265 268 272 274 274 273 274 274 274 273 272 273 276 278 279 279 280 282 283 283 284 283 282 279 279 282 280 279 273 273 274 273 268 270 274 273 270 270 271 270 267 266 266